Weather History for Fryeburg, ME

Change the Weather History Date:

Sunday, January 20, 2013

  Actual Average Record
Temperature  
Mean Temperature 28 °F -  
Max Temperature 44 °F 25 °F 52 °F (2006)
Min Temperature 12 °F 2 °F -18 °F (2000)
Degree Days  
Heating Degree Days 37    
Moisture  
Dew Point 17 °F    
Average Humidity 65    
Maximum Humidity 96    
Minimum Humidity 35    
Precipitation  
Precipitation 0.00 in - - ()
Sea Level Pressure  
Sea Level Pressure 29.64 in    
Wind  
Wind Speed 4 mph (West)    
Max Wind Speed 15 mph    
Max Gust Speed 31 mph    
Visibility 10 miles    
Events Rain    
Averages and records for this station are not official NWS values.
T = Trace of Precipitation, MM = Missing Value Source: NWS Daily Summary

Daily Weather History Graph

Daily Weather History Graph

Search for Another Location

Airport:

Trip Planner

Search our weather history database for the weather conditions in past years. The results will help you decide how hot, cold, wet, or windy it might be!

Date:

Astronomy

Jan. 20, 2013 Rise Set
Actual Time 7:12 AM EST 4:38 PM EST
Civil Twilight 6:40 AM EST 5:09 PM EST
Nautical Twilight 6:05 AM EST 5:45 PM EST
Astronomical Twilight 5:30 AM EST 6:19 PM EST
Moon 11:38 AM EST (1/20) 1:40 AM EST (1/20)
Length of Visible Light 10h 29m
Length of Day
9h 26m
Waxing Gibbous, 66% of the Moon is Illuminated
Jan 20
Waxing Gibbous
Jan 26
Full
Feb 3
Last Quarter
Feb 10
New
Feb 17
First Quarter

Hourly Weather History & Observations

Time (EST) Temp. Windchill Dew Point Humidity Pressure Visibility Wind Dir Wind Speed Gust Speed Precip Events Conditions
1:54 AM 27.0 °F - 21.9 °F 81% 29.81 in 10.0 mi Calm Calm - N/A   Overcast
2:54 AM 27.0 °F - 21.0 °F 78% 29.77 in 10.0 mi Calm Calm - 0.00 in   Overcast
3:54 AM 25.0 °F - 21.0 °F 85% 29.73 in 10.0 mi Calm Calm - N/A   Overcast
4:54 AM 21.0 °F - 19.0 °F 92% 29.69 in 10.0 mi Calm Calm - N/A   Clear
5:54 AM 17.1 °F - 15.1 °F 92% 29.64 in 10.0 mi Calm Calm - N/A   Clear
6:54 AM 12.9 °F - 12.0 °F 96% 29.61 in 10.0 mi Calm Calm - N/A   Clear
7:54 AM 16.0 °F - 14.0 °F 92% 29.56 in 10.0 mi Calm Calm - N/A   Clear
8:54 AM 23.0 °F - 19.9 °F 88% 29.53 in 10.0 mi Calm Calm - N/A   Clear
9:54 AM 28.9 °F - 21.0 °F 72% 29.51 in 10.0 mi Calm Calm - 0.00 in   Clear
10:54 AM 39.0 °F 35.7 °F 26.1 °F 60% 29.47 in 10.0 mi West 4.6 mph - 0.00 in Rain Light Rain
11:54 AM 39.9 °F 33.9 °F 28.0 °F 63% 29.47 in 10.0 mi WSW 9.2 mph 20.7 mph 0.00 in   Overcast
12:54 PM 42.1 °F 35.2 °F 27.0 °F 55% 29.45 in 10.0 mi WSW 12.7 mph 24.2 mph N/A   Clear
1:54 PM 44.1 °F 37.7 °F 21.0 °F 40% 29.48 in 10.0 mi West 12.7 mph 26.5 mph N/A   Mostly Cloudy
2:54 PM 41.0 °F 33.9 °F 15.1 °F 35% 29.51 in 10.0 mi West 12.7 mph 31.1 mph N/A   Clear
3:54 PM 39.0 °F 30.6 °F 15.1 °F 38% 29.57 in 10.0 mi West 15.0 mph 28.8 mph N/A   Partly Cloudy
4:54 PM 35.1 °F 27.9 °F 12.9 °F 40% 29.63 in 10.0 mi West 9.2 mph 23.0 mph N/A   Mostly Cloudy
5:54 PM 33.1 °F 25.5 °F 12.0 °F 42% 29.69 in 10.0 mi WSW 9.2 mph 27.6 mph N/A   Overcast
6:54 PM 30.9 °F 22.8 °F 10.0 °F 42% 29.71 in 10.0 mi West 9.2 mph 28.8 mph 0.00 in   Scattered Clouds
7:54 PM 30.0 °F 19.5 °F 10.0 °F 43% 29.73 in 10.0 mi West 13.8 mph 23.0 mph N/A   Overcast
8:54 PM 27.0 °F 18.0 °F 12.0 °F 53% 29.77 in 10.0 mi West 9.2 mph 16.1 mph N/A   Mostly Cloudy
9:54 PM 25.0 °F 14.8 °F 15.1 °F 66% 29.79 in 10.0 mi West 10.4 mph 23.0 mph 0.00 in   Overcast
10:54 PM 23.0 °F 13.9 °F 15.1 °F 72% 29.82 in 10.0 mi WSW 8.1 mph 18.4 mph 0.00 in   Mostly Cloudy
11:54 PM 21.0 °F 11.4 °F 10.0 °F 63% 29.84 in 10.0 mi WNW 8.1 mph - N/A   Overcast